Bellaire, MI

5:57 AM EDT on August 22, 2017 (GMT -0400)
Antrim County

Weather History for KACB - August, 2013

Change the Weather History Date:

Saturday, August 17, 2013

  Actual Average (KCVX) Record (KCVX)
Temperature  
Mean Temperature 64 °F -  
Max Temperature 82 °F 68 °F 84 °F (2008)
Min Temperature 46 °F 55 °F 51 °F (2007)
Degree Days  
Heating Degree Days 1    
Growing Degree Days 14 (Base 50)    
Moisture  
Dew Point 51 °F    
Average Humidity 68    
Maximum Humidity 98    
Minimum Humidity 28    
Precipitation  
Precipitation 0.00 in - - ()
Sea Level Pressure  
Sea Level Pressure 30.22 in    
Wind  
Wind Speed 1 mph (WSW)    
Max Wind Speed 8 mph    
Max Gust Speed -    
Visibility 8 miles    
Events Fog    
Averages and records for this station are not official NWS values.
T = Trace of Precipitation, MM = Missing Value Source: NWS Daily Summary

Daily Weather History Graph

Daily Weather History Graph

Search for Another Location

Airport or City:

Trip Planner

Search our weather history database for the weather conditions in past years. The results will help you decide how hot, cold, wet, or windy it might be!

Date:

Astronomy

Aug. 17, 2013 Rise Set
Actual Time 6:45 AM EDT 8:43 PM EDT
Civil Twilight 6:13 AM EDT 9:15 PM EDT
Nautical Twilight 5:34 AM EDT 9:53 PM EDT
Astronomical Twilight 4:51 AM EDT 10:36 PM EDT
Moon 6:02 PM EDT (8/17) 2:42 AM EDT (8/17)
Length of Visible Light 15h 01m
Length of Day
13h 58m
Waxing Gibbous, 84% of the Moon is Illuminated
Aug 17
Waxing Gibbous
Aug 20
Full
Aug 28
Last Quarter
Sep 5
New
Sep 12
First Quarter

Hourly Weather History & Observations

Time (EDT) Temp. Dew Point Humidity Pressure Visibility Wind Dir Wind Speed Gust Speed Precip Events Conditions
12:13 AM 53.8 °F 52.2 °F 94% 30.20 in 10.0 mi Calm Calm - N/A   Clear
12:34 AM 53.6 °F 52.2 °F 95% 30.20 in 7.0 mi Calm Calm - N/A   Clear
12:54 AM 53.6 °F 52.3 °F 95% 30.20 in 10.0 mi Calm Calm - N/A   Clear
1:14 AM 52.5 °F 51.4 °F 96% 30.21 in 2.0 mi Calm Calm - N/A   Clear
1:34 AM 52.0 °F 50.9 °F 96% 30.21 in 4.0 mi Calm Calm - N/A   Clear
1:54 AM 52.2 °F 51.3 °F 97% 30.21 in 7.0 mi Calm Calm - N/A   Clear
2:14 AM 50.4 °F 49.5 °F 97% 30.21 in 5.0 mi Calm Calm - N/A   Clear
2:34 AM 50.7 °F 49.8 °F 97% 30.21 in 1.5 mi Calm Calm - N/A   Mist
2:54 AM 49.6 °F 48.9 °F 97% 30.22 in 4.0 mi Calm Calm - N/A   Clear
3:14 AM 50.5 °F 50.0 °F 98% 30.22 in 5.0 mi Calm Calm - N/A   Clear
3:34 AM 49.8 °F 49.1 °F 97% 30.22 in 1.0 mi Calm Calm - N/A   Mist
3:54 AM 50.0 °F 49.3 °F 97% 30.23 in 4.0 mi Calm Calm - N/A   Clear
4:14 AM 48.4 °F 47.7 °F 97% 30.23 in 1.0 mi Calm Calm - N/A   Mist
4:34 AM 49.1 °F 48.4 °F 97% 30.23 in 7.0 mi Calm Calm - N/A   Clear
4:54 AM 49.3 °F 48.6 °F 97% 30.23 in 4.0 mi Calm Calm - N/A   Clear
5:14 AM 47.5 °F 46.9 °F 98% 30.23 in 0.8 mi Calm Calm - N/A   Mist
5:34 AM 47.5 °F 46.8 °F 97% 30.23 in 2.0 mi Calm Calm - N/A   Clear
5:54 AM 48.2 °F 47.3 °F 97% 30.23 in 10.0 mi Calm Calm - N/A   Clear
6:14 AM 48.2 °F 47.3 °F 97% 30.24 in 1.0 mi Calm Calm - N/A   Mist
6:34 AM 47.5 °F 46.8 °F 97% 30.24 in 2.5 mi Calm Calm - N/A   Clear
6:54 AM 46.8 °F 46.0 °F 97% 30.25 in 0.2 mi Calm Calm - N/A Fog Fog
7:14 AM 47.7 °F 46.9 °F 97% 30.25 in 2.5 mi Calm Calm - N/A   Clear
7:34 AM 48.6 °F 47.8 °F 97% 30.25 in 5.0 mi Calm Calm - N/A   Clear
7:54 AM 51.3 °F 50.7 °F 98% 30.25 in 10.0 mi Calm Calm - N/A   Clear
8:14 AM 53.6 °F 52.9 °F 97% 30.25 in 10.0 mi Calm Calm - N/A   Clear
8:35 AM 56.5 °F 53.6 °F 90% 30.26 in 10.0 mi Calm Calm - N/A   Clear
8:54 AM 59.4 °F 54.0 °F 82% 30.26 in 10.0 mi Calm Calm - N/A   Clear
9:14 AM 62.1 °F 54.7 °F 77% 30.26 in 10.0 mi Calm Calm - N/A   Clear
9:35 AM 65.7 °F 55.6 °F 70% 30.26 in 10.0 mi Calm Calm - N/A   Clear
9:54 AM 67.5 °F 55.8 °F 66% 30.26 in 10.0 mi SSW 3.5 mph - N/A   Clear
10:14 AM 69.3 °F 55.6 °F 62% 30.26 in 10.0 mi South 3.5 mph - N/A   Clear
10:34 AM 71.8 °F 55.6 °F 57% 30.26 in 10.0 mi South 3.5 mph - N/A   Clear
10:54 AM 73.8 °F 55.0 °F 52% 30.26 in 10.0 mi South 4.6 mph - N/A   Clear
11:14 AM 75.4 °F 51.6 °F 43% 30.26 in 10.0 mi South 5.8 mph - N/A   Clear
11:34 AM 76.5 °F 48.9 °F 38% 30.26 in 10.0 mi SW 6.9 mph - N/A   Clear
11:54 AM 77.2 °F 49.3 °F 37% 30.26 in 10.0 mi SW 5.8 mph - N/A   Clear
12:14 PM 78.4 °F 49.1 °F 36% 30.25 in 10.0 mi SW 5.8 mph - N/A   Clear
12:34 PM 79.3 °F 49.5 °F 35% 30.25 in 10.0 mi West 4.6 mph - N/A   Clear
12:54 PM 79.5 °F 49.3 °F 35% 30.24 in 10.0 mi West 4.6 mph - N/A   Clear
1:15 PM 79.9 °F 49.3 °F 34% 30.24 in 10.0 mi SW 4.6 mph - N/A   Clear
1:34 PM 80.8 °F 47.8 °F 31% 30.23 in 10.0 mi WSW 5.8 mph - N/A   Clear
1:54 PM 81.5 °F 47.7 °F 31% 30.23 in 10.0 mi Calm Calm - N/A   Clear
2:15 PM 81.1 °F 47.7 °F 31% 30.22 in 10.0 mi SW 4.6 mph - N/A   Clear
2:34 PM 81.9 °F 48.0 °F 31% 30.22 in 10.0 mi West 4.6 mph - N/A   Clear
2:54 PM 82.2 °F 48.2 °F 30% 30.21 in 10.0 mi West 4.6 mph - N/A   Clear
3:15 PM 82.0 °F 46.9 °F 29% 30.21 in 10.0 mi SW 5.8 mph - N/A   Clear
3:34 PM 82.6 °F 46.6 °F 28% 30.20 in 10.0 mi SSW 8.1 mph - N/A   Clear
3:54 PM 82.4 °F 46.0 °F 28% 30.20 in 10.0 mi WSW 5.8 mph - N/A   Clear
4:14 PM 82.0 °F 46.6 °F 29% 30.19 in 10.0 mi SSW 5.8 mph - N/A   Clear
4:34 PM 82.4 °F 47.8 °F 30% 30.19 in 10.0 mi WNW 5.8 mph - N/A   Clear
4:55 PM 82.0 °F 48.4 °F 31% 30.18 in 10.0 mi NW 5.8 mph - N/A   Clear
5:14 PM 81.7 °F 48.2 °F 31% 30.18 in 10.0 mi WNW 4.6 mph - N/A   Clear
5:34 PM 81.3 °F 49.1 °F 32% 30.18 in 10.0 mi West 4.6 mph - N/A   Clear
5:55 PM 80.2 °F 50.5 °F 35% 30.18 in 10.0 mi NNW 3.5 mph - N/A   Clear
6:14 PM 79.9 °F 50.0 °F 35% 30.18 in 10.0 mi NW 3.5 mph - N/A   Clear
6:34 PM 79.2 °F 50.0 °F 36% 30.18 in 10.0 mi WNW 5.8 mph - N/A   Clear
6:55 PM 77.9 °F 50.5 °F 38% 30.18 in 10.0 mi NW 3.5 mph - N/A   Clear
7:14 PM 77.0 °F 51.8 °F 41% 30.18 in 10.0 mi NNW 3.5 mph - N/A   Clear
7:34 PM 75.9 °F 52.5 °F 44% 30.18 in 10.0 mi Calm Calm - N/A   Clear
7:54 PM 73.9 °F 54.1 °F 50% 30.18 in 10.0 mi Calm Calm - N/A   Clear
8:14 PM 71.6 °F 54.5 °F 55% 30.18 in 10.0 mi Calm Calm - N/A   Clear
8:35 PM 68.0 °F 56.3 °F 66% 30.18 in 10.0 mi Calm Calm - N/A   Clear
8:54 PM 65.3 °F 56.1 °F 72% 30.18 in 10.0 mi Calm Calm - N/A   Clear
9:14 PM 62.8 °F 55.0 °F 76% 30.18 in 10.0 mi Calm Calm - N/A   Clear
9:35 PM 61.5 °F 55.0 °F 79% 30.19 in 10.0 mi Calm Calm - N/A   Clear
9:54 PM 61.0 °F 55.0 °F 81% 30.19 in 10.0 mi Calm Calm - N/A   Clear
10:15 PM 59.4 °F 55.0 °F 86% 30.20 in 10.0 mi Calm Calm - N/A   Clear
10:34 PM 58.6 °F 54.5 °F 86% 30.20 in 10.0 mi Calm Calm - N/A   Clear
10:54 PM 57.0 °F 54.5 °F 91% 30.20 in 10.0 mi Calm Calm - N/A   Clear
11:15 PM 56.1 °F 53.8 °F 92% 30.20 in 10.0 mi Calm Calm - N/A   Clear
11:34 PM 55.8 °F 53.6 °F 92% 30.19 in 10.0 mi Calm Calm - N/A   Clear
11:54 PM 55.6 °F 53.6 °F 93% 30.19 in 10.0 mi Calm Calm - N/A   Clear